Location: Bouchavesnes-Bergen
(49.9859°N, 2.9203°E)
Time: 04:10:36
(UTC+00:00)

Envisat - Pass Details

Date: 12 February 2023
Orbit: 763 x 765 km, 98.2° (Epoch: 30 March)

Event Time Altitude Azimuth Distance (km) Brightness Sun altitude
Rises 05:04:09 0° 7° (N) 3,246 6.4 -19.9°
Reaches altitude 10° 05:06:40 10° 358° (N) 2,315 5.5 -19.5°
Maximum altitude 05:11:09 32° 297° (WNW) 1,292 3.7 -18.7°
Enters shadow 05:11:14 32° 294° (WNW) 1,293 3.7 -18.7°
